Flag for U.S.A. Weather past 2 weeks in Costa Mesa, California, U.S.A.

85 °F

Scattered clouds.

Feels Like: 83 °F
Forecast: 72 / 92 °F
Wind: No wind

Location: John Wayne Airport-Orange County Airport

Current Time: Oct 10, 2015 at 9:12:05 AM

Latest Report: Oct 10, 2015 at 8:53 AM

Visibility: 10 mi

Pressure: 29.96 "Hg

Humidity: 34%

Dew point: 53 °F

Location of Costa MesaLocation

Historic Weather in Costa Mesa — Graph


Costa Mesa temperature yesterday

Maximum temperature yesterday: 103 °F (at 1:53 PM)
Minimum temperature yesterday: 68 °F (at 4:53 AM)
Average temperature yesterday: 82 °F

Past Weeks' High & Low Weather Summary

High103 °F (Oct 9, 1:53 PM)100% (Sep 26, 4:01 AM)30.10 "Hg (Sep 26, 4:01 AM)
Low61 °F (Oct 5, 2:53 AM)15% (Oct 9, 1:53 PM)29.55 "Hg (Oct 3, 6:53 PM)
Average73 °F72%29.85 "Hg
* Reported Sep 25 7:53 AM — Oct 10 7:53 AM, Costa Mesa, Weather by CustomWeather, © 2015

Note: Actual official high and low records may vary slightly from our data, if they occured in-between our weather recording intervals... More about our weather records


Costa Mesa weather history for previous 24 hours

Time TempWeatherWind HumidityBarometerVisibility
7:53 AM
Sat, Oct 10
78 °FPassing clouds.No wind43%29.95 "Hg10 mi
6:53 AM74 °FPassing clouds.No wind53%29.93 "Hg10 mi
5:53 AM74 °FPassing clouds.No wind53%29.93 "Hg10 mi
4:53 AM73 °FClear.No wind59%29.92 "Hg10 mi
3:53 AM74 °FClear.No wind60%29.92 "Hg10 mi
2:53 AM74 °FClear.No wind67%29.92 "Hg10 mi
1:53 AM75 °FClear.No wind69%29.92 "Hg10 mi
12:53 AM76 °FClear.No wind67%29.92 "Hg10 mi
11:53 PM
Fri, Oct 9
77 °FClear.No wind66%29.92 "Hg10 mi
10:53 PM78 °FPassing clouds.No wind64%29.91 "Hg10 mi
9:53 PM78 °FClear.No wind66%29.90 "Hg10 mi
8:53 PM79 °FClear.No wind67%29.89 "Hg10 mi
7:53 PM81 °FPassing clouds.6 mph58%29.87 "Hg10 mi
6:53 PM82 °FPassing clouds.10 mph51%29.84 "Hg10 mi
5:53 PM92 °FSunny.9 mph31%29.81 "Hg10 mi
4:53 PM96 °FPassing clouds.9 mph25%29.80 "Hg10 mi
3:53 PM99 °FPassing clouds.7 mph19%29.81 "Hg10 mi
2:53 PM99 °FPassing clouds.9 mph23%29.82 "Hg10 mi
1:53 PM103 °FPassing clouds.7 mph15%29.83 "Hg10 mi
12:53 PM101 °FPassing clouds.5 mph16%29.86 "Hg10 mi
11:53 AM100 °FPassing clouds.5 mph18%29.89 "Hg10 mi
10:53 AM89 °FPassing clouds.No wind41%29.91 "Hg10 mi
9:53 AM80 °FPassing clouds.No wind56%29.92 "Hg10 mi
Weather by CustomWeather, © 2015

See weather overviewHow to use our weather pages